Location: Gorze? G�rny
(49.8500°N, 19.5000°E)
Time: 05:14:32
(UTC+00:00)

Meteor 1-26 Rocket - Pass Details

Date: 13 May 2021
Orbit: 807 x 928 km, 81.3° (Epoch: 20 June)

Event Time Altitude Azimuth Distance (km) Brightness Sun altitude
Rises 19:26:42 0° 196° (SSW) 3,434 7.1 -9.6°
Reaches altitude 10° 19:29:10 10° 199° (SSW) 2,483 6.4 -9.8°
Maximum altitude 19:34:46 72° 283° (WNW) 880 4.5 -10.5°
Drops below altitude 10° 19:40:16 10° 9° (N) 2,430 7.2 -11.1°
Sets 19:42:39 0° 11° (NNE) 3,356 7.9 -11.3°
